Clarksville, TN

12:22 PM CST on January 22, 2017 (GMT -0600)
Outlaw

Weather History for KCKV - October, 2013

Change the Weather History Date:

Monday, October 21, 2013

  Actual Average Record
Temperature  
Mean Temperature 53 °F 57 °F  
Max Temperature 69 °F 70 °F 90 °F (1953)
Min Temperature 37 °F 45 °F 26 °F (1982)
Degree Days  
Heating Degree Days 12 8  
Month to date heating degree days 91 119  
Since 1 July heating degree days 99 148  
Cooling Degree Days 0 1  
Month to date cooling degree days 60 27  
Year to date cooling degree days 1426  
Growing Degree Days 2 (Base 50)    
Moisture  
Dew Point 41 °F    
Average Humidity 70    
Maximum Humidity 100    
Minimum Humidity 39    
Precipitation  
Precipitation 0.03 in 0.13 in 0.94 in (1983)
Month to date precipitation 2.00 2.74  
Year to date precipitation 39.40  
Sea Level Pressure  
Sea Level Pressure 30.03 in    
Wind  
Wind Speed 5 mph (SSW)    
Max Wind Speed 14 mph    
Max Gust Speed 18 mph    
Visibility 5 miles    
Events Fog , Rain    
T = Trace of Precipitation, MM = Missing Value Source: NWS Daily Summary

Daily Weather History Graph

Daily Weather History Graph

Search for Another Location

Airport or City:

Trip Planner

Search our weather history database for the weather conditions in past years. The results will help you decide how hot, cold, wet, or windy it might be!

Date:

Astronomy

Oct. 21, 2013 Rise Set
Actual Time 7:02 AM CDT 6:05 PM CDT
Civil Twilight 6:36 AM CDT 6:31 PM CDT
Nautical Twilight 6:06 AM CDT 7:01 PM CDT
Astronomical Twilight 5:36 AM CDT 7:31 PM CDT
Moon 8:01 PM CDT (10/21) 9:33 AM CDT (10/21)
Length of Visible Light 11h 54m
Length of Day
11h 02m
Waning Gibbous, 92% of the Moon is Illuminated
Oct 21
Waning Gibbous
Oct 26
Last Quarter
Nov 3
New
Nov 9
First Quarter
Nov 17
Full

Hourly Weather History & Observations

Time (CDT) Temp. Windchill Dew Point Humidity Pressure Visibility Wind Dir Wind Speed Gust Speed Precip Events Conditions
12:52 AM 41.0 °F - 39.9 °F 96% 30.03 in 4.0 mi Calm Calm - N/A   Clear
1:52 AM 42.1 °F - 39.9 °F 92% 30.03 in 10.0 mi Calm Calm - N/A   Clear
2:28 AM 41.0 °F - 39.2 °F 93% 30.03 in 1.5 mi Calm Calm - N/A   Clear
2:37 AM 39.2 °F - 39.2 °F 100% 30.03 in 0.5 mi Calm Calm - N/A Fog Fog
2:52 AM 39.9 °F - 39.0 °F 97% 30.03 in 2.0 mi Calm Calm - N/A   Clear
3:04 AM 39.2 °F - 39.2 °F 100% 30.03 in 4.0 mi Calm Calm - N/A   Clear
3:19 AM 39.2 °F - 39.2 °F 100% 30.03 in 1.8 mi Calm Calm - N/A   Clear
3:34 AM 39.2 °F - 39.2 °F 100% 30.03 in 0.8 mi Calm Calm - N/A   Clear
3:47 AM 39.2 °F - 37.4 °F 93% 30.04 in 1.8 mi Calm Calm - N/A   Clear
3:49 AM 39.2 °F - 37.4 °F 93% 30.04 in 4.0 mi Calm Calm - N/A   Clear
3:52 AM 39.9 °F - 39.0 °F 97% 30.04 in 7.0 mi Calm Calm - N/A   Clear
4:01 AM 39.2 °F - 39.2 °F 100% 30.04 in 1.8 mi Calm Calm - N/A   Clear
4:11 AM 39.2 °F - 39.2 °F 100% 30.04 in 0.8 mi Calm Calm - N/A   Clear
4:20 AM 39.2 °F - 37.4 °F 93% 30.04 in 1.2 mi Calm Calm - N/A   Clear
4:29 AM 39.2 °F - 37.4 °F 93% 30.05 in 0.5 mi Calm Calm - N/A Fog Fog
4:52 AM 37.9 °F - 37.0 °F 97% 30.06 in 0.5 mi Calm Calm - N/A Fog Fog
5:07 AM 37.4 °F - 37.4 °F 100% 30.05 in 1.2 mi Calm Calm - N/A   Clear
5:18 AM 37.4 °F - 37.4 °F 100% 30.05 in 0.5 mi Calm Calm - N/A Fog Fog
5:36 AM 37.4 °F - 37.4 °F 100% 30.06 in 2.0 mi Calm Calm - N/A   Clear
5:52 AM 37.9 °F - 37.0 °F 97% 30.06 in 6.0 mi Calm Calm - N/A   Clear
6:06 AM 37.4 °F - 37.4 °F 100% 30.06 in 1.8 mi Calm Calm - N/A   Clear
6:19 AM 37.4 °F 34.9 °F 37.4 °F 100% 30.06 in 0.5 mi East 3.5 mph - N/A Fog Fog
6:41 AM 37.4 °F 34.9 °F 37.4 °F 100% 30.06 in 2.0 mi East 3.5 mph - N/A   Clear
6:49 AM 37.4 °F 34.9 °F 37.4 °F 100% 30.06 in 4.0 mi ESE 3.5 mph - N/A   Clear
6:52 AM 37.9 °F 35.5 °F 37.0 °F 97% 30.06 in 4.0 mi ESE 3.5 mph - N/A   Clear
7:10 AM 37.4 °F 33.8 °F 35.6 °F 93% 30.06 in 2.0 mi SE 4.6 mph - N/A   Clear
7:40 AM 39.2 °F 37.0 °F 39.2 °F 100% 30.06 in 5.0 mi SE 3.5 mph - N/A   Clear
7:52 AM 39.9 °F - 39.9 °F 100% 30.06 in 7.0 mi Calm Calm - N/A   Clear
8:52 AM 48.0 °F - 43.0 °F 83% 30.07 in 10.0 mi Calm Calm - N/A   Clear
9:52 AM 55.0 °F - 44.1 °F 67% 30.07 in 10.0 mi SSW 5.8 mph - N/A   Clear
10:52 AM 61.0 °F - 44.1 °F 54% 30.05 in 10.0 mi SW 11.5 mph - N/A   Clear
11:52 AM 64.0 °F - 45.0 °F 50% 30.04 in 10.0 mi SW 9.2 mph 18.4 mph N/A   Clear
12:52 PM 66.9 °F - 45.0 °F 45% 30.02 in 10.0 mi SW 8.1 mph - N/A   Clear
1:52 PM 68.0 °F - 43.0 °F 40% 29.99 in 10.0 mi WSW 10.4 mph 17.3 mph N/A   Clear
2:52 PM 66.9 °F - 44.1 °F 44% 29.97 in 10.0 mi SSW 8.1 mph - N/A   Partly Cloudy
3:52 PM 66.9 °F - 44.1 °F 44% 29.98 in 10.0 mi SW 10.4 mph - N/A   Mostly Cloudy
4:52 PM 66.9 °F - 44.1 °F 44% 29.97 in 10.0 mi SW 9.2 mph - N/A   Partly Cloudy
5:52 PM 63.0 °F - 46.0 °F 54% 29.99 in 10.0 mi SW 3.5 mph - N/A   Clear
6:52 PM 61.0 °F - 46.9 °F 60% 29.99 in 10.0 mi Calm Calm - N/A   Mostly Cloudy
7:52 PM 57.9 °F - 48.9 °F 72% 29.99 in 10.0 mi SW 3.5 mph - N/A   Overcast
8:52 PM 54.0 °F - 48.9 °F 83% 29.98 in 10.0 mi Calm Calm - N/A   Mostly Cloudy
9:52 PM 57.0 °F - 50.0 °F 77% 30.00 in 10.0 mi West 5.8 mph - N/A   Overcast
10:52 PM 57.0 °F - 51.1 °F 81% 30.01 in 10.0 mi WNW 5.8 mph - 0.00 in Rain Light Rain
11:52 PM 55.0 °F - 51.1 °F 86% 30.02 in 10.0 mi North 10.4 mph - 0.00 in   Overcast